Flag for Germany Weather past 2 weeks in Göppingen, Baden-Württemberg, Germany

Now
58 °F

Partly sunny.


Feels Like: 58 °F
Forecast: 46 / 69 °F
Wind: 1 mph from North

Location: Stoetten

Current Time: Oct 1, 2014 at 7:07:10 PM

Latest Report: Oct 1, 2014 at 6:00 PM


Visibility: 28 mi

Pressure: 30.31 "Hg

Humidity: 84%

Dew point: 53 °F

Location of GöppingenLocation

Historic Weather in Göppingen — Graph

°F

Göppingen temperature yesterday

Maximum temperature yesterday: 61 °F (at 1:00 PM)
Minimum temperature yesterday: 56 °F (at 11:00 PM)
Average temperature yesterday: 59 °F

Past Weeks' High & Low Weather Summary

 TemperatureHumidityPressure
High71 °F (Sep 29, 3:00 PM)100% (Sep 17, 4:00 AM)30.36 "Hg (Sep 17, 4:00 AM)
Low40 °F (Sep 24, 7:00 AM)42% (Sep 29, 4:00 PM)29.84 "Hg (Sep 18, 4:00 PM)
Average55 °F86%30.12 "Hg
* Reported Sep 16 6:00 PM — Oct 1 6:00 PM, Göppingen, Weather by CustomWeather, © 2014

Note: Actual official high and low records may vary slightly from our data, if they occured in-between our weather recording intervals... More about our weather records

Advertising

Göppingen weather history for previous 24 hours

 ConditionsComfort  
Time TempWeatherWind HumidityBarometerVisibility
6:00 PM
Oct 1
58 °FPartly sunny.1 mph84%30.31 "Hg28 mi
5:00 PM63 °FPartly sunny.5 mph73%30.27 "Hg16 mi
4:00 PM61 °FScattered clouds.5 mph78%30.28 "Hg12 mi
3:00 PM60 °FPartly sunny.N/A85%30.29 "Hg9 mi
2:00 PM62 °FPartly sunny.3 mph80%30.29 "Hg5 mi
1:00 PM59 °FFog.N/A89%30.32 "Hg2 mi
12:00 PM56 °FFog.3 mph94%30.33 "Hg1 mi
11:00 AM57 °FLow clouds.2 mph94%30.31 "Hg2 mi
10:00 AM54 °FFog.2 mph99%30.32 "Hg1 mi
9:00 AM54 °FFog.1 mph99%30.32 "Hg1 mi
8:00 AM55 °FFog.1 mph100%30.31 "Hg0 mi
7:00 AM54 °FFog.2 mph100%30.30 "Hg0 mi
6:00 AM54 °FFog.2 mph100%30.30 "Hg0 mi
5:00 AM54 °FLow clouds.2 mph99%30.30 "Hg1 mi
4:00 AM54 °FLow clouds.2 mph100%30.31 "Hg0 mi
3:00 AM54 °FLow clouds.2 mph99%30.31 "Hg0 mi
2:00 AM55 °FLow clouds.1 mph99%30.31 "Hg0 mi
1:00 AM55 °FLow clouds.2 mph100%30.31 "Hg0 mi
12:00 AM56 °FPassing clouds.2 mph99%30.31 "Hg0 mi
11:00 PM
Sep 30
56 °FFog.2 mph98%30.30 "Hg1 mi
10:00 PM57 °FFog.2 mph96%30.31 "Hg3 mi
9:00 PM57 °FOvercast.1 mph95%30.30 "Hg16 mi
8:00 PM58 °FOvercast.1 mph92%30.29 "Hg17 mi
7:00 PM59 °FOvercast.2 mph90%30.29 "Hg22 mi
Weather by CustomWeather, © 2014

See weather overviewHow to use our weather pages